• In Russia
  • List of Countries
  • For 7 days
  • Water Temperature
  • Satellite Maps
  • Weather Map
  • Weather Widgets
  • user-avatar
    Login

    Hourly Weather Klagenfurt

    Today, 24 February, Friday

    Time Temperature Precipitation Wind Pressure Humidity
    00:00 +2°C° 0 mm 3 mps 682 mmHg 94%
    01:00 +3°C° 0 mm 3 mps 681 mmHg 95%
    02:00 +2°C° 0 mm 3 mps 681 mmHg 95%
    03:00 +2°C° 0 mm 3 mps 681 mmHg 95%
    04:00 +2°C° 0 mm 3 mps 681 mmHg 96%
    05:00 +3°C° 0 mm 2 mps 681 mmHg 96%
    06:00 +3°C° 0 mm 2 mps 681 mmHg 96%
    07:00 +3°C° 0 mm 2 mps 681 mmHg 96%
    08:00 +3°C° 0.2 mm 2 mps 681 mmHg 94%
    09:00 +5°C° 0.2 mm 1 mps 682 mmHg 92%
    10:00 +6°C° 0.2 mm 1 mps 682 mmHg 91%
    11:00 +6°C° 1 mm 1 mps 682 mmHg 91%
    12:00 +5°C° 1 mm 1 mps 682 mmHg 91%
    13:00 +6°C° 0 mm 1 mps 683 mmHg 91%
    14:00 +5°C° 2 mm 1 mps 683 mmHg 92%
    15:00 +5°C° 2 mm 1 mps 683 mmHg 93%
    16:00 +4°C° 2 mm 1 mps 683 mmHg 94%
    17:00 +4°C° 2.8 mm 1 mps 683 mmHg 94%
    18:00 +3°C° 2.8 mm 1 mps 684 mmHg 94%
    19:00 +3°C° 2.8 mm 1 mps 684 mmHg 95%
    20:00 +1°C° 1.9 mm 2 mps 685 mmHg 95%
    21:00 +1°C° 1.9 mm 2 mps 686 mmHg 95%
    22:00 +1°C° 1.9 mm 2 mps 687 mmHg 96%
    23:00 +1°C° 0.6 mm 2 mps 688 mmHg 96%

    Tomorrow, 25 February, Saturday

    Time Temperature Precipitation Wind Pressure Humidity
    00:00 -1°C° 0.6 mm 2 mps 688 mmHg 96%
    01:00 -1°C° 0.6 mm 2 mps 689 mmHg 96%
    02:00 -2°C° 0 mm 2 mps 689 mmHg 95%
    03:00 -2°C° 0 mm 2 mps 689 mmHg 95%
    04:00 -3°C° 0 mm 2 mps 690 mmHg 95%
    05:00 -4°C° 0 mm 2 mps 690 mmHg 95%
    06:00 -5°C° 0 mm 2 mps 690 mmHg 96%
    07:00 -4°C° 0 mm 1 mps 691 mmHg 96%
    08:00 -2°C° 0 mm 1 mps 691 mmHg 92%
    09:00 0°C° 0 mm 1 mps 692 mmHg 88%
    10:00 +1°C° 0 mm 1 mps 692 mmHg 85%
    11:00 +2°C° 0 mm 1 mps 693 mmHg 82%
    12:00 +3°C° 0 mm 1 mps 693 mmHg 80%
    13:00 +4°C° 0 mm 1 mps 693 mmHg 77%
    14:00 +4°C° 0 mm 1 mps 692 mmHg 79%
    15:00 +4°C° 0 mm 1 mps 692 mmHg 80%
    16:00 +4°C° 0 mm 1 mps 692 mmHg 82%
    17:00 +1°C° 0 mm 1 mps 692 mmHg 86%
    18:00 -2°C° 0 mm 1 mps 691 mmHg 89%
    19:00 -4°C° 0 mm 1 mps 691 mmHg 93%
    20:00 -4°C° 0 mm 1 mps 691 mmHg 93%
    21:00 -4°C° 0 mm 1 mps 691 mmHg 92%
    22:00 -4°C° 0 mm 1 mps 691 mmHg 92%
    23:00 -4°C° 0 mm 1 mps 691 mmHg 91%

    Day after tomorrow, 26 February, Sunday

    Time Temperature Precipitation Wind Pressure Humidity
    00:00 -4°C° 0 mm 1 mps 691 mmHg 91%
    01:00 -4°C° 0 mm 1 mps 691 mmHg 90%
    02:00 -4°C° 0 mm 1 mps 690 mmHg 89%
    03:00 -6°C° 0 mm 1 mps 690 mmHg 88%
    04:00 -6°C° 0 mm 1 mps 690 mmHg 87%
    05:00 -6°C° 0 mm 1 mps 689 mmHg 84%
    06:00 -6°C° 0 mm 1 mps 689 mmHg 81%
    07:00 -4°C° 0 mm 1 mps 689 mmHg 77%
    08:00 -2°C° 0 mm 1 mps 689 mmHg 75%
    09:00 +1°C° 0 mm 1 mps 690 mmHg 72%
    10:00 +4°C° 0 mm 1 mps 690 mmHg 70%
    11:00 +5°C° 0 mm 1 mps 690 mmHg 69%
    12:00 +6°C° 0 mm 1 mps 690 mmHg 69%
    13:00 +7°C° 0 mm 1 mps 690 mmHg 68%
    14:00 +7°C° 0 mm 1 mps 690 mmHg 73%
    15:00 +6°C° 0 mm 0 mps 690 mmHg 77%
    16:00 +6°C° 0 mm 0 mps 689 mmHg 82%
    17:00 +4°C° 0 mm 0 mps 689 mmHg 84%
    18:00 +2°C° 0 mm 0 mps 688 mmHg 87%
    19:00 -1°C° 0 mm 0 mps 688 mmHg 89%
    20:00 0°C° 0 mm 0 mps 688 mmHg 88%
    21:00 0°C° 0 mm 0 mps 688 mmHg 87%
    22:00 0°C° 0 mm 0 mps 688 mmHg 86%
    23:00 +1°C° 0 mm 1 mps 688 mmHg 85%

    27 February, Monday

    Time Temperature Precipitation Wind Pressure Humidity
    00:00 +1°C° 0 mm 1 mps 688 mmHg 84%
    01:00 +1°C° 0 mm 1 mps 688 mmHg 83%
    02:00 +1°C° 0 mm 1 mps 688 mmHg 82%
    03:00 +1°C° 0 mm 1 mps 687 mmHg 81%
    04:00 +1°C° 0 mm 1 mps 687 mmHg 81%
    05:00 +1°C° 0 mm 1 mps 687 mmHg 81%
    06:00 +1°C° 0 mm 1 mps 687 mmHg 82%
    07:00 0°C° 0 mm 1 mps 687 mmHg 82%
    08:00 +2°C° 0 mm 1 mps 687 mmHg 81%
    09:00 +4°C° 0 mm 1 mps 687 mmHg 80%
    10:00 +6°C° 0 mm 1 mps 687 mmHg 79%
    11:00 +7°C° 0 mm 1 mps 687 mmHg 80%
    12:00 +6°C° 0 mm 2 mps 687 mmHg 81%
    13:00 +7°C° 0 mm 2 mps 686 mmHg 83%
    14:00 +6°C° 0 mm 2 mps 686 mmHg 85%
    15:00 +6°C° 0 mm 2 mps 685 mmHg 87%
    16:00 +5°C° 0 mm 2 mps 685 mmHg 89%
    17:00 +4°C° 0 mm 2 mps 684 mmHg 92%
    18:00 +3°C° 0 mm 2 mps 684 mmHg 95%
    19:00 +2°C° 0 mm 2 mps 684 mmHg 98%
    20:00 +2°C° 0 mm 2 mps 684 mmHg 97%
    21:00 +1°C° 0 mm 2 mps 684 mmHg 97%
    22:00 +1°C° 0 mm 2 mps 684 mmHg 97%
    23:00 +1°C° 0 mm 2 mps 684 mmHg 97%

    28 February, Tuesday

    Time Temperature Precipitation Wind Pressure Humidity
    00:00 +1°C° 0 mm 2 mps 683 mmHg 97%
    01:00 +1°C° 0 mm 2 mps 683 mmHg 96%
    02:00 +1°C° 0 mm 2 mps 683 mmHg 96%
    03:00 +1°C° 0 mm 2 mps 682 mmHg 96%
    04:00 +1°C° 0 mm 2 mps 682 mmHg 96%
    05:00 +1°C° 0 mm 2 mps 682 mmHg 96%
    06:00 +1°C° 0 mm 2 mps 682 mmHg 96%
    07:00 +1°C° 0 mm 2 mps 682 mmHg 96%
    08:00 +2°C° 0.2 mm 2 mps 682 mmHg 94%
    09:00 +3°C° 0.2 mm 2 mps 682 mmHg 93%
    10:00 +4°C° 0.2 mm 2 mps 682 mmHg 91%
    11:00 +4°C° 0.4 mm 2 mps 682 mmHg 91%
    12:00 +4°C° 0.4 mm 3 mps 681 mmHg 92%
    13:00 +4°C° 0.4 mm 3 mps 680 mmHg 92%
    14:00 +4°C° 1 mm 3 mps 680 mmHg 93%
    15:00 +4°C° 1 mm 3 mps 679 mmHg 93%
    16:00 +4°C° 1 mm 3 mps 678 mmHg 94%
    17:00 +4°C° 2.1 mm 3 mps 678 mmHg 95%
    18:00 +4°C° 2.1 mm 3 mps 678 mmHg 96%
    19:00 +3°C° 2.1 mm 3 mps 678 mmHg 96%
    20:00 +3°C° 1.8 mm 3 mps 678 mmHg 96%
    21:00 +3°C° 1.8 mm 3 mps 679 mmHg 96%
    22:00 +4°C° 1.8 mm 2 mps 679 mmHg 95%
    23:00 +3°C° 1.5 mm 2 mps 679 mmHg 95%

    1 March, Wednesday

    Time Temperature Precipitation Wind Pressure Humidity
    00:00 +3°C° 1.5 mm 2 mps 679 mmHg 94%
    01:00 +3°C° 1.5 mm 1 mps 679 mmHg 93%
    02:00 +2°C° 0.6 mm 1 mps 680 mmHg 92%
    03:00 +2°C° 0.6 mm 1 mps 681 mmHg 91%
    04:00 +2°C° 0.6 mm 1 mps 681 mmHg 90%
    05:00 +1°C° 0 mm 1 mps 682 mmHg 90%
    06:00 0°C° 0 mm 1 mps 683 mmHg 89%
    07:00 -1°C° 0 mm 1 mps 684 mmHg 89%
    08:00 +1°C° 0 mm 1 mps 685 mmHg 85%
    09:00 +3°C° 0 mm 1 mps 686 mmHg 82%
    10:00 +5°C° 0 mm 1 mps 686 mmHg 78%
    11:00 +5°C° 0 mm 1 mps 687 mmHg 78%
    12:00 +5°C° 0 mm 2 mps 687 mmHg 78%
    13:00 +6°C° 0 mm 2 mps 687 mmHg 77%
    14:00 +6°C° 0 mm 2 mps 687 mmHg 79%
    15:00 +5°C° 0 mm 2 mps 687 mmHg 81%
    16:00 +5°C° 0 mm 2 mps 687 mmHg 83%
    17:00 +4°C° 0 mm 2 mps 687 mmHg 87%
    18:00 +3°C° 0 mm 1 mps 687 mmHg 91%
    19:00 +2°C° 0 mm 1 mps 687 mmHg 95%
    20:00 +2°C° 0 mm 1 mps 687 mmHg 95%
    21:00 +1°C° 0 mm 1 mps 687 mmHg 95%
    22:00 +1°C° 0 mm 1 mps 687 mmHg 95%
    23:00 +1°C° 0 mm 1 mps 687 mmHg 95%
    Show more